Regional Weather Roundup
Issued by NWS

Home | Current Version | Previous Version | Text Only | Print | Product List | Glossary Off
Versions: 1 2 3 4 5 6 7 8 9 10 11 12 13 14 15 16 17 18 19 20 21 22 23 24 25 26 27 28 29 30 31 32 33 34 35 36 37 38 39 40 41 42 43 44 45 46 47 48 49 50

112
ASUS43 KLSX 190410
RWRMO

WEATHER SUMMARY FOR MISSOURI
NATIONAL WEATHER SERVICE SPRINGFIELD MO
1000 PM CST WED JAN 18 2017

NOTE: "FAIR" INDICATES FEW OR NO CLOUDS BELOW 12,000 FEET WITH NO
       SIGNIFICANT WEATHER AND/OR OBSTRUCTIONS TO VISIBILITY.
       CURRENT SKY AND/OR WEATHER CONDITIONS ARE NOT AVAILABLE FOR
       CHILLICOTHE AND FARMINGTON.

MOZ001>031-035>038-043-044-053-054-190500-
...NORTHERN AND WESTERN MISSOURI...

CITY           SKY/WX    TMP DP  RH WIND       PRES   REMARKS
KANSAS CTY INT CLEAR     37  33  85 SE8       29.96S
KANSAS C DTWN  MOCLDY    40  37  89 CALM      29.97S
LEE`S SUMMIT   CLOUDY    41  38  89 SE6       29.97F
ST JOSEPH      CLEAR     37  36  96 S7        29.96F
CHILLICOTHE      N/A     35  34  96 CALM      30.00S
KIRKSVILLE     CLOUDY    31  31 100 SE3       30.01S FOG

$$
MOZ066>068-077>081-088>096-101>105-190500-
...SOUTHWEST MISSOURI...

CITY           SKY/WX    TMP DP  RH WIND       PRES   REMARKS
SPRINGFIELD    CLOUDY    43  41  93 SE14      29.98F FOG
JOPLIN         CLOUDY    46  45  96 SE9       29.97F
BRANSON        CLOUDY    41  41 100 SE7       30.01F FOG

$$
MOZ032>034-039>042-045>050-055>058-069>072-190500-
...CENTRAL MISSOURI...

CITY           SKY/WX    TMP DP  RH WIND       PRES   REMARKS
COLUMBIA       CLOUDY    45  35  68 SE7       30.01F
JEFFERSON CITY CLOUDY    47  36  65 E7        30.02F
ROLLA          CLOUDY    44  38  79 S9        30.01F
SEDALIA        CLOUDY    45  38  76 SE5       30.00F
WHITEMAN AFB   MOCLDY    42  41  99 SE7       29.97F
WARRENSBURG    CLOUDY    41  36  81 CALM      29.98F
OSAGE BEACH    CLOUDY    46  40  79 S9        30.01F

$$
MOZ051-052-059>065-190500-
...EAST CENTRAL MISSOURI...

CITY           SKY/WX    TMP DP  RH WIND       PRES   REMARKS
ST LOUIS INTL  CLOUDY    44  36  73 S6        30.06F
SPIRIT OF STL  CLOUDY    43  38  82 E3        30.05F
ST CHARLES     CLOUDY    38  37  97 E5        30.07S

$$
MOZ072>076-082>087-097>100-106>115-190500-
...SOUTH CENTRAL AND SOUTHEAST MISSOURI...

CITY           SKY/WX    TMP DP  RH WIND       PRES   REMARKS
CAPE GIRARDEAU MOCLDY    43  38  82 CALM      30.09S
FARMINGTON     CLOUDY    40  37  89 SE6       30.05F
POPLAR BLUFF   CLOUDY    44  41  89 CALM      30.08S
WEST PLAINS    CLOUDY    41  40  96 CALM      30.05S

$$




USA.gov is the U.S. government's official web portal to all federal, state and local government web resources and services.